H1 CPF 2 NER 2024 9 24 9 268 01 glonass105 H2 0705202 9105 32276 2024 9 24 0 0 0 2024 9 27 23 45 0 900 1 1 0 0 0 1 H9 10 0 60577 0.00000 0 -10336609.190 14259718.733 18476601.236 10 0 60577 900.00000 0 -12163862.542 15397782.027 16326458.354 10 0 60577 1800.00000 0 -13658727.360 16521612.351 13859884.490 10 0 60577 2700.00000 0 -14804549.413 17569441.881 11124680.546 10 0 60577 3600.00000 0 -15598065.471 18479327.791 8173847.744 10 0 60577 4500.00000 0 -16049298.593 19191840.605 5064567.767 10 0 60577 5400.00000 0 -16180906.755 19652666.150 1857101.685 10 0 60577 6300.00000 0 -16027012.715 19815011.972 -1386371.636 10 0 60577 7200.00000 0 -15631564.573 19641716.850 -4602955.560 10 0 60577 8100.00000 0 -15046296.129 19106974.294 -7730251.194 10 0 60577 9000.00000 0 -14328372.882 18197596.719 -10707565.037 10 0 60577 9900.00000 0 -13537822.809 16913766.051 -13477085.345 10 0 60577 10800.00000 0 -12734860.101 15269237.863 -15985004.410 10 0 60577 11700.00000 0 -11977214.676 13290988.869 -18182564.940 10 0 60577 12600.00000 0 -11317580.109 11018320.834 -20027010.088 10 0 60577 13500.00000 0 -10801287.741 8501456.664 -21482418.584 10 0 60577 14400.00000 0 -10464305.344 5799685.644 -22520408.627 10 0 60577 15300.00000 0 -10331645.178 2979133.694 -23120696.559 10 0 60577 16200.00000 0 -10416249.171 110250.267 -23271499.202 10 0 60577 17100.00000 0 -10718398.999 -2734884.535 -22969771.586 10 0 60577 18000.00000 0 -11225676.786 -5485321.296 -22221274.895 10 0 60577 18900.00000 0 -11913479.003 -8073956.679 -21040472.664 10 0 60577 19800.00000 0 -12746062.772 -10440090.136 -19450256.554 10 0 60577 20700.00000 0 -13678081.133 -12531715.528 -17481506.325 10 0 60577 21600.00000 0 -14656543.016 -14307452.139 -15172491.992 10 0 60577 22500.00000 0 -15623115.341 -15738034.541 -12568129.315 10 0 60577 23400.00000 0 -16516669.877 -16807299.180 -9719102.992 10 0 60577 24300.00000 0 -17275966.736 -17512626.782 -6680874.733 10 0 60577 25200.00000 0 -17842360.320 -17864822.752 -3512595.952 10 0 60577 26100.00000 0 -18162412.303 -17887441.582 -275947.048 10 0 60577 27000.00000 0 -18190300.131 -17615585.092 2966073.132 10 0 60577 27900.00000 0 -17889918.195 -17094226.665 6150382.991 10 0 60577 28800.00000 0 -17236582.010 -16376133.900 9215053.787 10 0 60577 29700.00000 0 -16218262.801 -15519478.999 12100520.108 10 0 60577 30600.00000 0 -14836300.043 -14585239.312 14750740.917 10 0 60577 31500.00000 0 -13105561.766 -13634498.950 17114288.139 10 0 60577 32400.00000 0 -11054045.935 -12725766.123 19145341.625 10 0 60577 33300.00000 0 -8721939.708 -11912419.654 20804571.565 10 0 60577 34200.00000 0 -6160176.093 -11240392.081 22059891.953 10 0 60577 35100.00000 0 -3428548.269 -10746186.283 22887071.508 10 0 60577 36000.00000 0 -593459.971 -10455308.128 23270191.420 10 0 60577 36900.00000 0 2274594.898 -10381179.895 23201942.211 10 0 60577 37800.00000 0 5103719.470 -10524578.937 22683755.106 10 0 60577 38700.00000 0 7823357.447 -10873624.084 21725766.224 10 0 60577 39600.00000 0 10366980.400 -11404309.533 20346614.897 10 0 60577 40500.00000 0 12674608.846 -12081563.294 18573080.260 10 0 60577 41400.00000 0 14695064.019 -12860785.570 16439563.073 10 0 60577 42300.00000 0 16387858.342 -13689802.591 13987422.458 10 0 60577 43200.00000 0 17724647.439 -14511154.208 11264179.798 10 0 60577 44100.00000 0 18690184.522 -15264619.608 8322604.510 10 0 60577 45000.00000 0 19282738.389 -15889875.472 5219698.646 10 0 60577 45900.00000 0 19513958.407 -16329175.200 2015599.307 10 0 60577 46800.00000 0 19408192.727 -16529936.689 -1227580.525 10 0 60577 47700.00000 0 19001288.644 -16447129.698 -4446950.672 10 0 60577 48600.00000 0 18338925.617 -16045361.947 -7580059.105 10 0 60577 49500.00000 0 17474551.007 -15300575.441 -10566100.535 10 0 60577 50400.00000 0 16467005.247 -14201280.591 -13347094.894 10 0 60577 51300.00000 0 15377936.227 -12749274.902 -15869012.815 10 0 60577 52200.00000 0 14269111.577 -10959814.398 -18082826.244 10 0 60577 53100.00000 0 13199741.909 -8861228.807 -19945463.666 10 0 60577 54000.00000 0 12223927.640 -6493994.701 -21420651.289 10 0 60577 54900.00000 0 11388336.952 -3909303.456 -22479623.704 10 0 60577 55800.00000 0 10730212.813 -1167182.037 -23101689.968 10 0 60577 56700.00000 0 10275793.222 1665756.617 -23274643.816 10 0 60577 57600.00000 0 10039211.619 4518841.241 -22995009.590 10 0 60577 58500.00000 0 10021924.234 7320043.705 -22268118.577 10 0 60577 59400.00000 0 10212689.070 9998742.543 -21108013.606 10 0 60577 60300.00000 0 10588097.899 12488433.946 -19537183.062 10 0 60577 61200.00000 0 11113639.325 14729277.401 -17586128.801 10 0 60577 62100.00000 0 11745248.284 16670369.840 -15292775.733 10 0 60577 63000.00000 0 12431276.636 18271653.292 -12701734.139 10 0 60577 63900.00000 0 13114801.290 19505376.221 -9863428.891 10 0 60577 64800.00000 0 13736171.742 20357047.485 -6833112.664 10 0 60577 65700.00000 0 14235688.426 20825843.322 -3669782.744 10 0 60577 66600.00000 0 14556297.499 20924450.908 -435023.349 10 0 60577 67500.00000 0 14646186.846 20678356.135 2808203.038 10 0 60577 68400.00000 0 14461172.325 20124606.899 5996790.698 10 0 60577 69300.00000 0 13966772.245 19310105.531 9068726.816 10 0 60577 70200.00000 0 13139881.549 18289503.982 11964303.691 10 0 60577 71100.00000 0 11969974.390 17122792.031 14627282.680 10 0 60577 72000.00000 0 10459784.029 15872681.515 17005986.754 10 0 60577 72900.00000 0 8625431.258 14601897.771 19054300.426 10 0 60577 73800.00000 0 6495995.887 13370492.812 20732558.013 10 0 60577 74700.00000 0 4112549.279 12233293.316 22008303.679 10 0 60577 75600.00000 0 1526688.289 11237590.190 22856909.578 10 0 60577 76500.00000 0 -1201368.418 10421165.813 23262041.263 10 0 60577 77400.00000 0 -4005042.823 9810740.530 23215962.567 10 0 60577 78300.00000 0 -6813925.354 9420902.167 22719675.167 10 0 60577 79200.00000 0 -9556464.020 9253561.983 21782891.003 10 0 60577 80100.00000 0 -12162704.388 9297958.654 20423838.725 10 0 60577 81000.00000 0 -14566968.045 9531209.028 18668908.159 10 0 60577 81900.00000 0 -16710359.800 9919381.872 16552139.608 10 0 60577 82800.00000 0 -18543000.891 10419049.129 14114567.532 10 0 60577 83700.00000 0 -20025896.693 10979249.511 11403430.740 10 0 60577 84600.00000 0 -21132362.357 11543782.023 8471263.639 10 0 60577 85500.00000 0 -21848947.910 12053733.269 5374885.416 10 0 60578 0.00000 0 -22175824.905 12450132.453 2174306.320 10 0 60578 900.00000 0 -22126619.062 12676622.680 -1068430.170 10 0 60578 1800.00000 0 -21727695.822 12682035.507 -4290442.952 10 0 60578 2700.00000 0 -21016929.406 12422760.772 -7429229.559 10 0 60578 3600.00000 0 -20042006.456 11864810.695 -10423875.433 10 0 60578 4500.00000 0 -18858335.557 10985490.656 -13216234.468 10 0 60578 5400.00000 0 -17526650.173 9774605.059 -15752057.661 10 0 60578 6300.00000 0 -16110405.499 8235146.028 -17982047.911 10 0 60578 7200.00000 0 -14673078.361 6383434.226 -19862820.397 10 0 60578 8100.00000 0 -13275483.454 4248703.938 -21357749.768 10 0 60578 9000.00000 0 -11973218.530 1872147.752 -22437687.573 10 0 60578 9900.00000 0 -10814345.846 -694541.204 -23081535.738 10 0 60578 10800.00000 0 -9837407.310 -3391070.452 -23276664.660 10 0 60578 11700.00000 0 -9069856.838 -6150815.133 -23019167.360 10 0 60578 12600.00000 0 -8526976.037 -8903357.537 -22313944.228 10 0 60578 13500.00000 0 -8211319.025 -11577194.397 -21174616.044 10 0 60578 14400.00000 0 -8112709.962 -14102499.753 -19623266.279 10 0 60578 15300.00000 0 -8208793.586 -16413828.463 -17690016.975 10 0 60578 16200.00000 0 -8466115.534 -18452647.621 -15412445.843 10 0 60578 17100.00000 0 -8841686.713 -20169590.010 -12834855.466 10 0 60578 18000.00000 0 -9284965.243 -21526335.102 -10007408.613 10 0 60578 18900.00000 0 -9740171.481 -22497038.713 -6985146.651 10 0 60578 19800.00000 0 -10148837.292 -23069251.402 -3826910.525 10 0 60578 20700.00000 0 -10452480.501 -23244287.310 -594186.125 10 0 60578 21600.00000 0 -10595290.027 -23037028.644 2650102.528 10 0 60578 22500.00000 0 -10526706.726 -22475174.947 5842827.637 10 0 60578 23400.00000 0 -10203789.472 -21597970.053 8921894.347 10 0 60578 24300.00000 0 -9593265.382 -20454461.782 11827454.695 10 0 60578 25200.00000 0 -8673176.707 -19101369.133 14503074.436 10 0 60578 26100.00000 0 -7434054.354 -17600648.140 16896829.534 10 0 60578 27000.00000 0 -5879568.279 -16016859.924 18962311.017 10 0 60578 27900.00000 0 -4026627.199 -14414452.224 20659519.009 10 0 60578 28800.00000 0 -1904923.415 -12855068.854 21955629.320 10 0 60578 29700.00000 0 444058.349 -11394999.620 22825618.737 10 0 60578 30600.00000 0 2968526.848 -10082876.811 23252738.088 10 0 60578 31500.00000 0 5608303.384 -8957713.542 23228825.116 10 0 60578 32400.00000 0 8297094.745 -8047364.585 22754452.220 10 0 60578 33300.00000 0 10965026.351 -7367472.442 21838907.119 10 0 60578 34200.00000 0 13541331.395 -6920941.218 20500007.420 10 0 60578 35100.00000 0 15957085.508 -6697958.799 18763752.963 10 0 60578 36000.00000 0 18147874.681 -6676565.258 16663822.590 10 0 60578 36900.00000 0 20056286.840 -6823742.781 14240924.767 10 0 60578 37800.00000 0 21634124.700 -7096980.822 11542014.031 10 0 60578 38700.00000 0 22844248.820 -7446250.536 8619387.714 10 0 60578 39600.00000 0 23661974.858 -7816305.429 5529679.720 10 0 60578 40500.00000 0 24075967.371 -8149211.541 2332770.111 10 0 60578 41400.00000 0 24088593.131 -8387000.688 -909369.001 10 0 60578 42300.00000 0 23715719.339 -8474335.003 -4133869.329 10 0 60578 43200.00000 0 22985965.139 -8361070.265 -7278181.212 10 0 60578 44100.00000 0 21939437.575 -8004609.549 -10281284.004 10 0 60578 45000.00000 0 20626004.728 -7371947.246 -13084868.594 10 0 60578 45900.00000 0 19103178.064 -6441316.295 -15634469.147 10 0 60578 46800.00000 0 17433692.457 -5203367.919 -17880522.060 10 0 60578 47700.00000 0 15682885.025 -3661832.589 -19779331.451 10 0 60578 48600.00000 0 13915982.375 -1833632.584 -21293922.340 10 0 60578 49500.00000 0 12195409.723 251560.635 -22394764.829 10 0 60578 50400.00000 0 10578234.500 2552307.753 -23060354.932 10 0 60578 51300.00000 0 9113851.472 5016882.599 -23277640.533 10 0 60578 52200.00000 0 7842006.355 7585192.823 -23042283.738 10 0 60578 53100.00000 0 6791240.798 10191061.580 -22358753.992 10 0 60578 54000.00000 0 5977823.996 12764776.304 -21240249.536 10 0 60578 54900.00000 0 5405215.764 15235799.059 -19708447.983 10 0 60578 55800.00000 0 5064083.616 17535525.795 -17793090.193 10 0 60578 56700.00000 0 4932872.887 19599979.414 -15531404.892 10 0 60578 57600.00000 0 4978905.557 21372323.897 -12967384.778 10 0 60578 58500.00000 0 5159960.806 22805093.959 -10150927.976 10 0 60578 59400.00000 0 5426269.745 23862046.435 -7136861.682 10 0 60578 60300.00000 0 5722838.905 24519555.468 -3983867.377 10 0 60578 61200.00000 0 5992002.927 24767492.839 -753329.309 10 0 60578 62100.00000 0 6176096.982 24609556.656 2491870.347 10 0 60578 63000.00000 0 6220134.321 24063035.188 5688585.107 10 0 60578 63900.00000 0 6074374.242 23158016.636 8774641.347 10 0 60578 64800.00000 0 5696670.570 21936079.322 11690053.924 10 0 60578 65700.00000 0 5054500.392 20448518.659 14378195.816 10 0 60578 66600.00000 0 4126586.655 18754186.816 16786898.529 10 0 60578 67500.00000 0 2904045.756 16917036.949 18869461.823 10 0 60578 68400.00000 0 1391011.561 15003475.949 20585553.532 10 0 60578 69300.00000 0 -395290.447 13079637.087 21901982.658 10 0 60578 70200.00000 0 -2425022.081 11208686.697 22793331.799 10 0 60578 71100.00000 0 -4656744.552 9448276.969 23242437.827 10 0 60578 72000.00000 0 -7038921.723 7848250.272 23240712.701 10 0 60578 72900.00000 0 -9511852.349 6448689.446 22788299.350 10 0 60578 73800.00000 0 -12009951.545 5278393.794 21894060.539 10 0 60578 74700.00000 0 -14464287.477 4353842.650 20575401.531 10 0 60578 75600.00000 0 -16805268.868 3678688.070 18857930.314 10 0 60578 76500.00000 0 -18965372.780 3243796.287 16774961.880 10 0 60578 77400.00000 0 -20881800.381 3027834.924 14366875.848 10 0 60578 78300.00000 0 -22498951.301 2998380.378 11680339.273 10 0 60578 79200.00000 0 -23770614.470 3113498.277 8767408.970 10 0 60578 80100.00000 0 -24661784.821 3323730.262 5684529.998 10 0 60578 81000.00000 0 -25150030.517 3574403.408 2491448.968 10 0 60578 81900.00000 0 -25226353.839 3808164.981 -749937.410 10 0 60578 82800.00000 0 -24895509.653 3967635.742 -3976776.681 10 0 60578 83700.00000 0 -24175767.965 3998069.777 -7126475.090 10 0 60578 84600.00000 0 -23098130.080 3849908.404 -10137908.765 10 0 60578 85500.00000 0 -21705030.733 3481119.893 -12952608.191 10 0 60579 0.00000 0 -20048580.172 2859225.609 -15515892.787 10 0 60579 900.00000 0 -18188418.323 1962925.691 -17777934.846 10 0 60579 1800.00000 0 -16189272.667 783255.280 -19694728.694 10 0 60579 2700.00000 0 -14118318.597 -675780.099 -21228950.756 10 0 60579 3600.00000 0 -12042454.444 -2397117.845 -22350690.180 10 0 60579 4500.00000 0 -10025604.002 -4351106.198 -23038037.034 10 0 60579 5400.00000 0 -8126159.230 -6496509.162 -23277516.122 10 0 60579 6300.00000 0 -6394669.872 -8782008.345 -23064357.564 10 0 60579 7200.00000 0 -4871876.535 -11148140.600 -22402598.370 10 0 60579 8100.00000 0 -3587169.420 -13529591.965 -21305012.362 10 0 60579 9000.00000 0 -2557537.147 -15857753.075 -19792869.115 10 0 60579 9900.00000 0 -1787049.551 -18063429.893 -17895525.896 10 0 60579 10800.00000 0 -1266895.866 -20079596.640 -15649859.892 10 0 60579 11700.00000 0 -975976.176 -21844075.633 -13099551.282 10 0 60579 12600.00000 0 -882020.565 -23302031.363 -10294230.928 10 0 60579 13500.00000 0 -943187.804 -24408173.730 -7288509.306 10 0 60579 14400.00000 0 -1110074.889 -25128577.421 -4140906.006 10 0 60579 15300.00000 0 -1328051.133 -25442040.563 -912701.368 10 0 60579 16200.00000 0 -1539816.494 -25340925.376 2333266.398 10 0 60579 17100.00000 0 -1688074.308 -24831445.594 5533834.085 10 0 60579 18000.00000 0 -1718203.730 -23933389.076 8626751.140 10 0 60579 18900.00000 0 -1580817.426 -22679288.065 11551896.976 10 0 60579 19800.00000 0 -1234095.181 -21113073.051 14252453.428 10 0 60579 20700.00000 0 -645793.978 -19288267.923 16676009.054 10 0 60579 21600.00000 0 205150.810 -17265803.297 18775573.738 10 0 60579 22500.00000 0 1327500.881 -15111540.534 20510484.235 10 0 60579 23400.00000 0 2717114.490 -12893610.717 21847183.754 10 0 60579 24300.00000 0 4356895.177 -10679679.910 22759861.494 10 0 60579 25200.00000 0 6217291.904 -8534254.548 23230940.913 10 0 60579 26100.00000 0 8257329.784 -6516138.493 23251408.479 10 0 60579 27000.00000 0 10426128.666 -4676146.461 22820977.698 10 0 60579 27900.00000 0 12664846.769 -3055167.497 21948086.174 10 0 60579 28800.00000 0 14908969.085 -1682657.340 20649726.395 10 0 60579 29700.00000 0 17090846.201 -575620.722 18951113.818 10 0 60579 30600.00000 0 19142378.873 261875.807 16885198.673 10 0 60579 31500.00000 0 20997737.601 838641.699 14492030.553 10 0 60579 32400.00000 0 22596004.963 1175754.831 11817987.578 10 0 60579 33300.00000 0 23883631.389 1305434.950 8914884.293 10 0 60579 34200.00000 0 24816602.582 1269446.097 5838974.844 10 0 60579 35100.00000 0 25362228.457 1117095.534 2649870.035 10 0 60579 36000.00000 0 25500478.966 902913.589 -590611.450 10 0 60579 36900.00000 0 25224810.786 684112.242 -3819635.804 10 0 60579 37800.00000 0 24542449.874 517929.703 -6974568.084 10 0 60579 38700.00000 0 23474117.519 458973.153 -9994184.108 10 0 60579 39600.00000 0 22053210.633 556672.118 -12819856.778 10 0 60579 40500.00000 0 20324469.826 852950.467 -15396693.851 10 0 60579 41400.00000 0 18342190.207 1380216.060 -17674605.028 10 0 60579 42300.00000 0 16168048.969 2159753.862 -19609277.533 10 0 60579 43200.00000 0 13868639.886 3200591.609 -21163041.160 10 0 60579 44100.00000 0 11512817.068 4498887.365 -22305605.827 10 0 60579 45000.00000 0 9168958.431 6037866.515 -23014657.112 10 0 60579 45900.00000 0 6902262.670 7788312.779 -23276297.890 10 0 60579 46800.00000 0 4772192.244 9709594.546 -23085327.118 10 0 60579 47700.00000 0 2830168.885 11751185.308 -22445349.781 10 0 60579 48600.00000 0 1117617.709 13854616.077 -21368715.262 10 0 60579 49500.00000 0 -335558.577 15955779.275 -19876284.618 10 0 60579 50400.00000 0 -1512011.676 17987488.426 -17997030.554 10 0 60579 51300.00000 0 -2407443.090 19882186.857 -15767477.276 10 0 60579 52200.00000 0 -3030542.593 21574691.876 -13230990.565 10 0 60579 53100.00000 0 -3402373.068 23004858.941 -10436931.715 10 0 60579 54000.00000 0 -3555228.626 24120053.414 -7439691.828 10 0 60579 54900.00000 0 -3531015.326 24877325.305 -4297625.645 10 0 60579 55800.00000 0 -3379224.322 25245194.889 -1071906.419 10 0 60579 56700.00000 0 -3154584.721 25204973.538 2174674.922 10 0 60579 57600.00000 0 -2914497.107 24751563.930 5378941.812 10 0 60579 58500.00000 0 -2716358.005 23893706.023 8478570.100 10 0 60579 59400.00000 0 -2614890.023 22653658.860 11413306.963 10 0 60579 60300.00000 0 -2659591.864 21066332.273 14126146.125 10 0 60579 61200.00000 0 -2892417.011 19177905.847 16564436.010 10 0 60579 62100.00000 0 -3345779.657 17043994.028 18680899.168 10 0 60579 63000.00000 0 -4040972.349 14727435.051 20434543.538 10 0 60579 63900.00000 0 -4987061.951 12295796.809 21791448.484 10 0 60579 64800.00000 0 -6180310.251 9818704.047 22725411.407 10 0 60579 65700.00000 0 -7604143.348 7365098.134 23218443.551 10 0 60579 66600.00000 0 -9229670.987 5000542.931 23261106.656 10 0 60579 67500.00000 0 -11016734.158 2784687.726 22852685.061 10 0 60579 68400.00000 0 -12915437.463 768991.310 22001190.921 10 0 60579 69300.00000 0 -14868102.764 -1005199.898 20723203.060 10 0 60579 70200.00000 0 -16811563.318 -2508141.576 19043542.929 10 0 60579 71100.00000 0 -18679703.624 -3722688.964 16994793.919 10 0 60579 72000.00000 0 -20406139.949 -4644762.195 14616672.997 10 0 60579 72900.00000 0 -21926930.676 -5283261.648 11955266.284 10 0 60579 73800.00000 0 -23183204.125 -5659438.089 9062142.635 10 0 60579 74700.00000 0 -24123594.692 -5805744.938 5993361.643 10 0 60579 75600.00000 0 -24706385.855 -5764221.462 2808394.532 10 0 60579 76500.00000 0 -24901270.441 -5584475.245 -431021.814 10 0 60579 77400.00000 0 -24690654.270 -5321349.058 -3662075.931 10 0 60579 78300.00000 0 -24070448.068 -5032370.549 -6822095.253 10 0 60579 79200.00000 0 -23050313.767 -4775092.424 -9849758.644 10 0 60579 80100.00000 0 -21653353.958 -4604435.510 -12686284.534 10 0 60579 81000.00000 0 -19915256.489 -4570147.153 -15276571.612 10 0 60579 81900.00000 0 -17882928.918 -4714482.729 -17570269.875 10 0 60579 82800.00000 0 -15612678.889 -5070208.811 -19522761.182 10 0 60579 83700.00000 0 -13168015.448 -5659013.195 -21096030.115 10 0 60579 84600.00000 0 -10617162.183 -6490390.023 -22259408.182 10 0 60579 85500.00000 0 -8030385.175 -7561048.401 -22990176.638 10 0 60580 0.00000 0 -5477246.754 -8854870.910 -23274015.952 10 0 60580 900.00000 0 -3023897.664 -10343426.199 -23105292.875 10 0 60580 1800.00000 0 -730523.529 -11987014.065 -22487178.697 10 0 60580 2700.00000 0 1350952.695 -13736202.988 -21431596.283 10 0 60580 3600.00000 0 3178813.283 -15533795.272 -19958995.720 10 0 60580 4500.00000 0 4723053.715 -17317138.895 -18097962.435 10 0 60580 5400.00000 0 5966393.100 -19020689.526 -15884664.741 10 0 60580 6300.00000 0 6904745.165 -20578715.229 -13362150.996 10 0 60580 7200.00000 0 7547130.670 -21928029.959 -10579509.862 10 0 60580 8100.00000 0 7915035.835 -23010640.313 -7590910.023 10 0 60580 9000.00000 0 8041244.934 -23776193.399 -4454538.416 10 0 60580 9900.00000 0 7968197.706 -24184121.874 -1231458.392 10 0 60580 10800.00000 0 7745942.541 -24205395.032 2015589.032 10 0 60580 11700.00000 0 7429773.679 -23823801.555 5223416.343 10 0 60580 12600.00000 0 7077654.109 -23036709.584 8329627.959 10 0 60580 13500.00000 0 6747534.785 -21855272.130 11273840.733 10 0 60580 14400.00000 0 6494684.978 -20304069.474 13998861.924 10 0 60580 15300.00000 0 6369147.685 -18420204.174 16451801.187 10 0 60580 16200.00000 0 6413428.306 -16251887.323 18585094.832 10 0 60580 17100.00000 0 6660514.406 -13856575.968 20357422.781 10 0 60580 18000.00000 0 7132310.035 -11298740.136 21734501.068 10 0 60580 18900.00000 0 7838550.206 -8647352.959 22689735.520 10 0 60580 19800.00000 0 8776240.752 -5973208.366 23204725.131 10 0 60580 20700.00000 0 9929646.696 -3346177.531 23269606.612 10 0 60580 21600.00000 0 11270829.317 -832517.132 22883234.622 10 0 60580 22500.00000 0 12760709.361 1507660.036 22053195.145 10 0 60580 23400.00000 0 14350612.120 3622648.643 20795652.454 10 0 60580 24300.00000 0 15984230.198 5471056.388 19135032.945 10 0 60580 25200.00000 0 17599922.626 7023274.170 17103551.977 10 0 60580 26100.00000 0 19133255.020 8262451.497 14740592.532 10 0 60580 27000.00000 0 20519675.437 9184938.108 12091947.215 10 0 60580 27900.00000 0 21697214.848 9800174.793 9208937.484 10 0 60580 28800.00000 0 22609099.815 10130039.090 6147426.466 10 0 60580 29700.00000 0 23206168.405 10207674.081 2966743.706 10 0 60580 30600.00000 0 23448988.228 10075850.014 -271457.989 10 0 60580 31500.00000 0 23309587.604 9784927.936 -3504391.905 10 0 60580 32400.00000 0 22772726.781 9390511.255 -6669350.315 10 0 60580 33300.00000 0 21836655.073 8950884.224 -9704917.589 10 0 60580 34200.00000 0 20513321.165 8524345.504 -12552160.066 10 0 60580 35100.00000 0 18828026.541 8166549.383 -15155769.606 10 0 60580 36000.00000 0 16818535.229 7927967.131 -17465138.590 10 0 60580 36900.00000 0 14533675.756 7851576.009 -19435345.406 10 0 60580 37800.00000 0 12031492.422 7970874.039 -21028031.177 10 0 60580 38700.00000 0 9377021.799 8308305.085 -22212150.584 10 0 60580 39600.00000 0 6639786.181 8874161.667 -22964581.977 10 0 60580 40500.00000 0 3891107.450 9666012.967 -23270584.655 10 0 60580 41400.00000 0 1201352.540 10668683.498 -23124094.032 10 0 60580 42300.00000 0 -1362775.321 11854784.778 -22527848.442 10 0 60580 43200.00000 0 -3740787.185 13185779.026 -21493344.485 10 0 60580 44100.00000 0 -5880694.763 14613531.449 -20040621.083 10 0 60580 45000.00000 0 -7740937.402 16082286.790 -18197875.719 10 0 60580 45900.00000 0 -9291869.467 17530987.675 -16000919.662 10 0 60580 46800.00000 0 -10516746.192 18895837.467 -13492482.257 10 0 60580 47700.00000 0 -11412167.192 20112999.565 -10721377.545 10 0 60580 48600.00000 0 -11987959.739 21121318.937 -7741549.465 10 0 60580 49500.00000 0 -12266507.698 21864950.404 -4611014.557 10 0 60580 50400.00000 0 -12281555.662 22295781.862 -1390723.460 10 0 60580 51300.00000 0 -12076540.241 22375549.293 1856635.668 10 0 60580 52200.00000 0 -11702520.655 22077553.456 5067867.411 10 0 60580 53100.00000 0 -11215797.863 21387905.242 8180507.836 10 0 60580 54000.00000 0 -10675324.561 20306246.843 11134046.535 10 0 60580 54900.00000 0 -10140017.100 18845918.327 13871107.305 10 0 60580 55800.00000 0 -9666084.112 17033562.841 16338563.919 10 0 60580 56700.00000 0 -9304485.491 14908187.427 18488569.175 10 0 60580 57600.00000 0 -9098629.360 12519719.286 20279477.507 10 0 60580 58500.00000 0 -9082404.053 9927118.321 21676643.890 10 0 60580 59400.00000 0 -9278627.615 7196124.987 22653084.551 10 0 60580 60300.00000 0 -9697979.411 4396737.237 23189987.850 10 0 60580 61200.00000 0 -10338458.012 1600521.161 23277066.679 10 0 60580 62100.00000 0 -11185387.486 -1122133.740 22912746.747 10 0 60580 63000.00000 0 -12211971.290 -3704701.872 22104188.087 10 0 60580 63900.00000 0 -13380370.368 -6087041.345 20867140.067 10 0 60580 64800.00000 0 -14643260.334 -8217643.385 19225633.097 10 0 60580 65700.00000 0 -15945802.892 -10055519.720 17211512.978 10 0 60580 66600.00000 0 -17227949.506 -11571651.261 14863826.642 10 0 60580 67500.00000 0 -18426981.526 -12749939.413 12228070.602 10 0 60580 68400.00000 0 -19480181.092 -13587621.844 9355315.930 10 0 60580 69300.00000 0 -20327521.442 -14095136.510 6301225.977 10 0 60580 70200.00000 0 -20914264.278 -14295440.553 3124985.065 10 0 60580 71100.00000 0 -21193355.354 -14222813.261 -111841.749 10 0 60580 72000.00000 0 -21127517.596 -13921193.740 -3346496.237 10 0 60580 72900.00000 0 -20690953.406 -13442123.390 -6516239.226 10 0 60580 73800.00000 0 -19870583.883 -12842379.878 -9559564.236 10 0 60580 74700.00000 0 -18666771.883 -12181402.288 -12417389.013 10 0 60580 75600.00000 0 -17093497.241 -11518616.007 -15034201.869 10 0 60580 76500.00000 0 -15177975.344 -10910770.202 -17359140.547 10 0 60580 77400.00000 0 -12959733.433 -10409400.337 -19346982.540 10 0 60580 78300.00000 0 -10489181.670 -10058523.022 -20959027.573 10 0 60580 79200.00000 0 -7825737.085 -9892660.839 -22163854.965 10 0 60580 80100.00000 0 -5035577.283 -9935281.047 -22937940.969 10 0 60580 81000.00000 0 -2189116.277 -10197714.745 -23266123.829 10 0 60580 81900.00000 0 641693.464 -10678603.021 -23141907.140 10 0 60580 82800.00000 0 3386121.208 -11363894.483 -22567595.091 10 0 60580 83700.00000 0 5977366.036 -12227395.377 -21554256.350 10 0 60580 84600.00000 0 8355100.433 -13231850.189 -20121516.564 10 0 60580 85500.00000 0 10467743.531 -14330508.094 -18297182.782 99